Clyde Park, MT

8:54 PM MDT on July 28, 2016 (GMT -0600)
Mission

Weather History for KLVM - March, 2012

Change the Weather History Date:

Sunday, March 25, 2012

  Actual Average Record
Temperature  
Mean Temperature 48 °F 38 °F  
Max Temperature 61 °F 50 °F 73 °F (1999)
Min Temperature 37 °F 26 °F -20 °F (1955)
Degree Days  
Heating Degree Days 17 27  
Month to date heating degree days 751  
Since 1 July heating degree days 6099  
Cooling Degree Days 0 0  
Month to date cooling degree days 0  
Year to date cooling degree days 0  
Moisture  
Dew Point 33 °F    
Average Humidity 67    
Maximum Humidity 82    
Minimum Humidity 42    
Precipitation  
Precipitation 0.00 in 0.03 in 0.44 in (1985)
Month to date precipitation 0.62  
Year to date precipitation 1.61  
Sea Level Pressure  
Sea Level Pressure 29.89 in    
Wind  
Wind Speed 6 mph (East)    
Max Wind Speed 25 mph    
Max Gust Speed 32 mph    
Visibility 10 miles    
Events      
T = Trace of Precipitation, MM = Missing Value Source: NWS Daily Summary

Daily Weather History Graph

Daily Weather History Graph

Search for Another Location

Airport or City:

Trip Planner

Search our weather history database for the weather conditions in past years. The results will help you decide how hot, cold, wet, or windy it might be!

Date:

Astronomy

Mar. 25, 2012 Rise Set
Actual Time 7:14 AM MDT 7:41 PM MDT
Civil Twilight 6:44 AM MDT 8:11 PM MDT
Nautical Twilight 6:09 AM MDT 8:46 PM MDT
Astronomical Twilight 5:32 AM MDT 9:23 PM MDT
Moon 8:17 AM MDT (3/25) 11:13 PM MDT (3/25)
Length of Visible Light 13h 27m
Length of Day
12h 27m
Waxing Crescent, 9% of the Moon is Illuminated
Mar 25
Waxing Crescent
Mar 30
First Quarter
Apr 6
Full
Apr 13
Last Quarter
Apr 21
New

Hourly Weather History & Observations

Time (MDT) Temp. Windchill Dew Point Humidity Pressure Visibility Wind Dir Wind Speed Gust Speed Precip Events Conditions
12:53 AM 37.9 °F 34.4 °F 32.0 °F 79% 30.07 in 10.0 mi East 4.6 mph - N/A   Overcast
1:53 AM 37.9 °F 35.5 °F 32.0 °F 79% 30.05 in 10.0 mi East 3.5 mph - N/A   Overcast
2:53 AM 37.9 °F - 32.0 °F 79% 30.04 in 10.0 mi Calm Calm - N/A   Overcast
3:53 AM 37.9 °F - 32.0 °F 79% 30.02 in 10.0 mi Calm Calm - N/A   Overcast
4:53 AM 37.0 °F 33.3 °F 32.0 °F 82% 30.00 in 10.0 mi ENE 4.6 mph - N/A   Overcast
5:23 AM 37.4 °F 34.9 °F 32.0 °F 81% 29.96 in 10.0 mi ENE 3.5 mph - N/A   Overcast
5:37 AM 37.4 °F - 32.0 °F 81% 29.96 in 10.0 mi Calm Calm - N/A   Overcast
5:53 AM 37.0 °F - 32.0 °F 82% 30.00 in 10.0 mi Calm Calm - N/A   Overcast
6:53 AM 37.0 °F 34.5 °F 32.0 °F 82% 30.00 in 10.0 mi East 3.5 mph - N/A   Overcast
7:53 AM 37.0 °F 34.5 °F 32.0 °F 82% 30.00 in 10.0 mi East 3.5 mph - N/A   Overcast
8:28 AM 37.4 °F 33.8 °F 32.0 °F 81% 29.95 in 10.0 mi NE 4.6 mph - N/A   Overcast
8:53 AM 37.0 °F 34.5 °F 32.0 °F 82% 29.99 in 10.0 mi NE 3.5 mph - N/A   Overcast
9:53 AM 39.0 °F 35.7 °F 32.0 °F 76% 29.97 in 10.0 mi ENE 4.6 mph - N/A   Overcast
10:19 AM 41.0 °F 37.1 °F 33.8 °F 76% 29.93 in 10.0 mi Variable 5.8 mph - N/A   Overcast
10:46 AM 41.0 °F 36.4 °F 33.8 °F 76% 29.92 in 10.0 mi East 6.9 mph - N/A   Partly Cloudy
10:53 AM 42.1 °F 37.7 °F 33.1 °F 70% 29.94 in 10.0 mi East 6.9 mph - N/A   Partly Cloudy
11:53 AM 46.9 °F - 33.1 °F 59% 29.90 in 10.0 mi Variable 6.9 mph - N/A   Clear
12:53 PM 51.1 °F - 32.0 °F 48% 29.85 in 10.0 mi East 12.7 mph - N/A   Clear
1:53 PM 55.0 °F - 33.1 °F 43% 29.80 in 10.0 mi East 19.6 mph - N/A   Clear
2:53 PM 57.0 °F - 36.0 °F 45% 29.76 in 10.0 mi East 20.7 mph 26.5 mph N/A   Clear
3:53 PM 59.0 °F - 36.0 °F 42% 29.73 in 10.0 mi East 23.0 mph 27.6 mph N/A   Clear
4:53 PM 59.0 °F - 37.0 °F 44% 29.72 in 10.0 mi East 23.0 mph - N/A   Partly Cloudy
5:53 PM 57.0 °F - 36.0 °F 45% 29.73 in 10.0 mi East 25.3 mph 32.2 mph N/A   Partly Cloudy
6:53 PM 55.0 °F - 35.1 °F 47% 29.74 in 10.0 mi East 16.1 mph - N/A   Clear
7:53 PM 52.0 °F - 35.1 °F 53% 29.75 in 10.0 mi East 13.8 mph - N/A   Clear
8:53 PM 48.9 °F - 35.1 °F 59% 29.76 in 10.0 mi East 16.1 mph - N/A   Clear
9:53 PM 46.0 °F 41.9 °F 35.1 °F 66% 29.76 in 10.0 mi ESE 8.1 mph - N/A   Clear
10:53 PM 44.1 °F 40.8 °F 34.0 °F 68% 29.75 in 10.0 mi ESE 5.8 mph - N/A   Clear
11:53 PM 43.0 °F 38.8 °F 34.0 °F 71% 29.71 in 10.0 mi SE 6.9 mph - N/A   Clear